Date,TemperatureHighF,TemperatureAvgF,TemperatureLowF,DewpointHighF,DewpointAvgF,DewpointLowF,HumidityHigh,HumidityAvg,HumidityLow,PressureMaxIn,PressureMinIn,WindSpeedMaxMPH,WindSpeedAvgMPH,GustSpeedMaxMPH,PrecipitationSumIn
2013-1-1,38.2,35.8,29.4,29.7,25.3,18.4,76,66,54,30.03,29.90,8,4,17,0.02
2013-1-2,31.3,27.3,24.1,18.7,14.5,11.7,67,58,48,30.23,30.00,12,5,25,0.01
2013-1-3,33.4,27.1,20.8,19.4,15.5,12.8,73,62,51,30.24,30.13,7,4,14,0.00
2013-1-4,38.2,33.0,30.7,21.9,20.1,18.5,65,59,49,30.16,30.04,13,7,22,0.00
2013-1-5,37.8,32.3,28.1,23.1,20.2,18.3,70,61,50,30.36,30.09,11,4,24,0.00
2013-1-6,46.1,37.1,28.5,33.0,27.6,23.2,94,70,46,30.20,30.01,9,2,19,0.01
2013-1-7,42.5,37.8,31.6,29.1,26.6,23.6,72,64,52,30.41,30.11,10,4,19,0.00
2013-1-8,47.4,36.6,29.3,32.2,27.7,23.1,82,70,54,30.40,30.36,3,1,7,0.00
2013-1-9,45.1,37.3,28.7,37.8,31.9,26.1,92,82,57,30.38,30.20,7,2,16,0.01
2013-1-10,46.1,41.2,37.0,29.0,26.6,24.7,65,56,48,30.57,30.32,10,4,20,0.00
2013-1-11,43.3,39.3,34.6,40.8,33.5,26.5,99,80,62,30.50,30.09,4,1,11,0.40
2013-1-12,50.2,43.5,39.8,49.1,42.6,39.5,100,97,85,30.18,30.09,3,0,7,0.00
2013-1-13,46.2,44.0,40.3,46.2,44.0,39.7,100,100,97,30.13,29.97,4,1,8,0.01
2013-1-14,49.8,46.5,38.8,49.2,41.5,30.6,100,85,55,30.30,29.92,11,3,22,0.18
2013-1-15,38.8,36.0,32.2,36.9,31.0,26.8,96,82,68,30.36,30.18,5,1,12,0.29
2013-1-16,35.8,33.3,31.6,35.5,32.7,30.5,99,98,94,30.18,29.86,4,1,10,0.58
2013-1-17,39.1,36.9,34.6,36.7,29.7,26.8,99,76,64,30.13,29.96,10,3,20,0.00
2013-1-18,34.9,29.3,26.1,27.2,12.8,4.7,75,51,33,30.48,30.02,12,5,27,0.00
2013-1-19,53.8,38.9,26.7,29.6,23.4,11.7,71,55,31,30.39,29.89,6,2,14,0.00
2013-1-20,52.2,42.3,27.0,30.9,20.5,11.8,63,44,25,30.08,29.77,18,7,34,0.00
2013-1-21,32.7,26.6,22.9,23.4,13.7,9.8,84,58,50,30.11,29.87,10,3,19,0.00
2013-1-22,23.5,15.8,11.2,12.6,-3.7,-8.5,66,42,31,30.28,29.92,13,9,27,0.00
2013-1-23,18.8,13.5,9.3,0.3,-2.4,-4.8,61,49,36,30.32,30.17,11,5,21,0.00
2013-1-24,25.4,18.0,13.5,7.6,1.8,-5.1,75,51,27,30.48,30.13,13,5,29,0.00
2013-1-25,19.9,15.6,12.8,13.3,4.8,-2.0,88,64,42,30.49,30.08,8,2,16,0.00
2013-1-26,26.7,19.7,14.3,14.6,12.4,10.7,88,74,55,30.42,30.09,8,3,16,0.02
2013-1-27,32.9,24.7,15.2,16.2,13.7,10.6,87,64,47,30.58,30.42,6,2,14,0.02
2013-1-28,34.4,30.8,26.6,33.9,27.9,15.7,98,89,62,30.49,30.04,3,1,7,0.06
2013-1-29,58.9,45.1,34.4,49.7,41.8,33.9,99,89,71,30.13,29.97,5,2,11,0.07
2013-1-30,63.2,52.5,42.5,57.7,51.2,41.3,100,96,82,29.97,29.25,11,4,26,1.42
2013-1-31,56.3,39.3,26.7,56.3,25.8,8.7,100,60,38,29.85,29.12,21,10,42,0.56